Location: Owatonna
(44.0840°N, 93.2260°W)
Time: 07:31:10
(UTC-05:00)

Tiangong 1 - Visible Passes

Search period start: 25 April 2015 00:00
Search period end: 05 May 2015 00:00
Orbit: 383 x 398 km, 42.8° (Epoch: 24 April)

Date Brightness Start Highest point End Pass type
(mag) Time Alt. Az. Time Alt. Az. Time Alt. Az.
25 Apr 3.2 05:31:42 10° SSW 05:34:00 19° SSE 05:36:21 10° ESE visible
26 Apr 3.6 04:35:47 12° SSE 04:36:26 12° SSE 04:37:48 10° ESE visible
27 Apr 2.4 05:12:50 14° SW 05:15:03 30° SSE 05:17:53 10° E visible
28 Apr 2.9 04:17:28 20° SSE 04:17:28 20° SSE 04:19:43 10° ESE visible
29 Apr 1.6 04:54:18 23° SW 04:55:53 44° SSE 04:58:55 10° E visible
30 Apr 2.6 03:58:44 27° SE 03:58:44 27° SE 04:00:47 10° E visible
30 Apr 1.1 05:31:25 10° W 05:34:34 68° S 05:37:42 10° E visible
01 May 1.2 04:35:23 35° SW 04:36:28 59° S 04:39:35 10° E visible
02 May 2.8 03:39:42 26° ESE 03:39:42 26° ESE 03:41:23 10° E visible
02 May 1.1 05:11:59 11° W 05:15:02 70° S 05:18:11 10° E visible
03 May 1.0 04:16:15 53° SW 04:16:47 69° S 04:19:56 10° E visible
04 May 3.3 03:20:30 20° E 03:20:30 20° E 03:21:37 10° E visible
04 May 1.1 04:52:47 15° W 04:55:12 62° S 04:58:20 10° ESE visible
